STARLINK-35938 (66644 NORAD) Tracking and Keplerian Element Data

This shows tracking and keplerian element data for the satellite.

Feedback or suggestion? Click here.




ElementValue
Catalog66644
NameSTARLINK-35938
Epoch Orbit515
Epoch Day352.84359334
Epoch Year2025
RAAN157.9473
Inclination53.1591
Eccentricity5.99E-05
Argument of Perigee93.6054
Mean Anonmoly266.5024
Mean Motion15.49333178
Decay Rate0.00073731
L11 66644U 25271AD 25352.84359334 .00073731 00000+0 13201-2 0 9998
L22 66644 53.1591 157.9473 0000599 93.6054 266.5024 15.49333178 5158



Live tracking and technical data element details for STARLINK-35938 (NORAD 66644). STARLINK-35938 can be tracked NOW for your location showing map with azimuth and elevation plus other details from your city location.







IsCatalogInMostPopularTable: catalog: 66644, numindb: 18
Update: records affected: 1



GetName: 66644 STARLINK-35938

Hit Count: updated at: Thu, 16 Apr 2026 06:50:15 GMT